This is the latest recevied weather packets stored in our database for station/object AI5KP-13. If no packets are shown the sender has not sent any weather packets the latest 10 day(s).
| Time | Temp. | Humidity | Pressure | Rain* | Wind** | Luminosity | Snow |
|---|---|---|---|---|---|---|---|
| 1777315625 | 27.78° C | 66% | 1005.6 hPa | 0 mm | - | 749 W/m² | - |
| 1777315323 | 27.78° C | 70% | 1005.8 hPa | 0 mm | - | 795 W/m² | - |
| 1777315021 | 28.33° C | 69% | 1006 hPa | 0 mm | - | 264 W/m² | - |
| 1777314721 | 27.78° C | 70% | 1005.9 hPa | 0 mm | - | 320 W/m² | - |
| 1777314418 | 27.78° C | 70% | 1005.8 hPa | 0 mm | - | 710 W/m² | - |
| 1777314115 | 27.78° C | 68% | 1005.9 hPa | 0 mm | - | 738 W/m² | - |
| 1777313813 | 27.78° C | 69% | 1005.8 hPa | 0 mm | - | 748 W/m² | - |
| 1777313510 | 28.33° C | 70% | 1005.6 hPa | 0 mm | - | 769 W/m² | - |
| 1777313207 | 27.78° C | 69% | 1005.9 hPa | 0 mm | - | 657 W/m² | - |
| 1777312903 | 27.78° C | 71% | 1005.9 hPa | 0 mm | - | 716 W/m² | - |
| 1777312600 | 27.78° C | 74% | 1005.9 hPa | 0 mm | - | 350 W/m² | - |
| 1777312297 | 27.22° C | 72% | 1006 hPa | 0 mm | - | 491 W/m² | - |
| 1777311994 | 27.22° C | 71% | 1006 hPa | 0 mm | - | 658 W/m² | - |
| 1777311690 | 27.78° C | 69% | 1005.8 hPa | 0 mm | - | 746 W/m² | - |
| 1777311388 | 27.78° C | 74% | 1005.9 hPa | 0 mm | - | 746 W/m² | - |
| 1777311085 | 27.22° C | 74% | 1005.6 hPa | 0 mm | - | 714 W/m² | - |
| 1777310783 | 27.22° C | 73% | 1005.6 hPa | 0 mm | - | 633 W/m² | - |
| 1777310481 | 26.67° C | 72% | 1005.7 hPa | 0 mm | - | 711 W/m² | - |
| 1777310178 | 26.67° C | 73% | 1005.9 hPa | 0 mm | - | 698 W/m² | - |
| 1777309875 | 27.22° C | 73% | 1005.8 hPa | 0 mm | - | 703 W/m² | - |
| 1777309573 | 27.22° C | 74% | 1005.9 hPa | 0 mm | - | 414 W/m² | - |
| 1777309270 | 26.67° C | 74% | 1006.1 hPa | 0 mm | - | 455 W/m² | - |
| 1777308969 | 26.67° C | 76% | 1006 hPa | 0 mm | - | 262 W/m² | - |
| 1777308664 | 26.67° C | 76% | 1005.8 hPa | 0 mm | - | 530 W/m² | - |
| 1777308359 | 26.67° C | 79% | 1006 hPa | 0 mm | - | 707 W/m² | - |
* Rain latest hour (hover to see other rain measurements)
** Current wind speed in m/s (hover to see current wind gust speed)